"Pseudo-MPEC" for P117Wk8

Created 2020 Oct 25 0:07:30 UT using Find_Orb

Click here for an explanation of pseudo-MPECs

 
 Astrometry: 
     P117Wk8  C2020 10 15Ni9Jo$cmHv4m9.CaC8L37AwR@+qK$E:=o0gNs4Pp#C/1fJTXvBorF51
     P117Wk8  C2020 10 15s!l7-cb1.W)XgJ,;861;YtyE5WuWmP(:B5#^fo]D]a*x@coS]PR\F51
     P117Wk8  C2020 10 15ecXvi%qAstrometry?H`Ca;/VxSm`7E:W.c0F9(X%`Tnf[@+](DAF51
     P117Wk8  C2020 10 15kUtDH45n(lVkV_r_=wyrF?Sf%jF-5Byjpwl*3`fYq16Mpb24:2``F51
     P117Wk8  C2020 10 15Qm0]LqrH/V[IBo@T+n$GZ8aFRGxE'b]./0Q]iredacted;9586*3F51
     P117Wk8  C2020 10 15ji[nk;aRbmT:m[PC]_.h?EB.^XGt4`IgQ(]ZO7tBMQrJh220QWS:F51
     P117Wk8  C2020 10 15pe;D[Ocuxclick*LfdQ;UK8(V0-xv?/(QBG']kbf.^ld4X(eN^kfF51
     P117Wk8  C2020 10 20f!PM'Gccx%+E,BjHbS`EKnXSZ`kKXLV_],iF*n+)T'N#i'=Ih8vxF51
     P117Wk8  C2020 10 20xg#Xherey)59dLESMP230:ag]h+aIM%a#W:E4rDqa][h]5;3kMF!F51
     P117Wk8  C2020 10 20AbiYPN@S!y;%0/JD[H;w`QeCffor01-02)rUb#)\V_5KdEZhCp6^F51
     P117Wk8  C2020 10 22mv5XsU8)@En-(fbDiFF+;KI:,7]VMvI$e[QAs[;r)HUo1y91Z9puF51
     P117Wk8  C2020 10 22d?6JVs]o)a[d9V7NqdW@?+?px2fNw+G;k(x;1:Pv-,g5WQFQpL65F51
     P117Wk8  C2020 10 22F`gXL;/1YWK_%fJsF4o3?;?6AUKg8B.cTgt4l392^fN^F*L;lV](F51
     P117Wk8  C2020 10 23xl-?bys+-]9OWMAkATO-\gTg:o_,v4$huwQtq6(TO1eV,0w`9_w'F51
     P117Wk8  C2020 10 23mAb#'BSoAjxLdIbFW7WBHdSE$l*UMwsn:PO6)D7%45QS^:So+17SF51
     P117Wk8  C2020 10 23ODS-k7ci6g]As$;0]Oy5\7)6,hexplanation!xv*B)7g@T`/EMFF51

Station data:
(F51) Pan-STARRS 1, Haleakala  (N20.707235 W156.255910)  US/Hawaii.
   Observers N. Primak, A. Schultz, S. Watters, J. Thiel, T. Goggia. Measurer
   PS1 Science Consortium. 1.8-m Ritchey-Chrétien + CCD.

Orbital elements:  P117Wk8
   Perihelion 2021 Feb 17.178889 +/- 0.225 TT =  4:17:36 (JD 2459262.678889)
Epoch 2020 Oct 23.0 TT = JDT 2459145.5   Earth MOID: 0.4261   Ma: 0.0179
M 310.51412375 +/- 0.07             (J2000 ecliptic)          AutoNEOCP
n   0.42231050 +/- 0.000533         Peri.   86.66691 +/- 0.043
a   1.75946834 +/- 0.00148          Node    11.76636 +/- 0.006
e   0.2831503 +/- 0.000439          Incl.   17.72072 +/- 0.056
P   2.33/852.44d           H 22.1   G  0.15   U  7.7  
q 1.26127425 +/- 0.000934    Q 2.25766242 +/- 0.0024
From 16 observations 2020 Oct. 15-23; mean residual 0".10
Residuals in arcseconds: 
201015 F51  .29+  .09-    201015 F51  .05+  .08-    201022 F51  .10+  .12-    
201015 F51  .09-  .03+    201020 F51  .12-  .02+    201023 F51  .15-  .13+    
201015 F51  .15-  .07+    201020 F51  .00   .04+    201023 F51  .10-  .02+    
201015 F51  .02-  .06+    201020 F51  .11+  .00     201023 F51  .23+  .05-    
201015 F51  .04-  .11-    201022 F51  .12-  .02-    
201015 F51  .04-  .11+    201022 F51  .05+  .04-    

Ephemerides (geocentric):
Date (UTC) HH   RA              Dec         delta   r     elong  mag " sig PA
---- -- -- --  -------------   -----------  ------ ------ -----  --- ---- ---
2020 10 25 00  23 44 03.808   +04 52 06.89  .60526 1.5342 146.1 23.0 .441  32
2020 10 25 01  23 43 59.700   +04 52 41.98  .60533 1.5340 146.0 23.0 .450  32
2020 10 25 02  23 43 55.598   +04 53 17.08  .60540 1.5338 145.9 23.0 .460  32
2020 10 25 03  23 43 51.501   +04 53 52.19  .60547 1.5337 145.9 23.0 .469  32
2020 10 25 04  23 43 47.410   +04 54 27.30  .60554 1.5335 145.8 23.0 .479  32
2020 10 25 05  23 43 43.325   +04 55 02.43  .60561 1.5334 145.8 23.0 .488  32
2020 10 25 06  23 43 39.245   +04 55 37.56  .60568 1.5332 145.7 23.0 .498  33
2020 10 25 07  23 43 35.170   +04 56 12.70  .60575 1.5331 145.7 23.0 .508  33
2020 10 25 08  23 43 31.101   +04 56 47.85  .60583 1.5329 145.6 23.0 .518  33
2020 10 25 09  23 43 27.038   +04 57 23.01  .60590 1.5328 145.6 23.0 .527  33
2020 10 25 10  23 43 22.981   +04 57 58.18  .60597 1.5326 145.5 23.0 .537  33
2020 10 25 11  23 43 18.928   +04 58 33.35  .60604 1.5324 145.4 23.0 .548  33
2020 10 25 12  23 43 14.882   +04 59 08.54  .60612 1.5323 145.4 23.0 .558  33
2020 10 25 13  23 43 10.841   +04 59 43.73  .60619 1.5321 145.3 23.0 .568  33
2020 10 25 14  23 43 06.806   +05 00 18.93  .60626 1.5320 145.3 23.0 .578  33
2020 10 25 15  23 43 02.776   +05 00 54.14  .60633 1.5318 145.2 23.0 .589  33
2020 10 25 16  23 42 58.752   +05 01 29.36  .60641 1.5317 145.2 23.0 .599  33
2020 10 25 17  23 42 54.734   +05 02 04.59  .60648 1.5315 145.1 23.0 .610  33
2020 10 25 18  23 42 50.721   +05 02 39.82  .60656 1.5313 145.1 23.0 .620  33
2020 10 25 19  23 42 46.714   +05 03 15.06  .60663 1.5312 145.0 23.0 .631  33
2020 10 25 20  23 42 42.713   +05 03 50.32  .60671 1.5310 145.0 23.0 .642  33
2020 10 25 21  23 42 38.717   +05 04 25.58  .60678 1.5309 144.9 23.0 .652  33
2020 10 25 22  23 42 34.727   +05 05 00.84  .60686 1.5307 144.8 23.0 .663  34
2020 10 25 23  23 42 30.743   +05 05 36.12  .60693 1.5306 144.8 23.0 .674  34
2020 10 26 00  23 42 26.764   +05 06 11.41  .60701 1.5304 144.7 23.0 .685  34
2020 10 26 01  23 42 22.791   +05 06 46.70  .60709 1.5303 144.7 23.0 .696  34
2020 10 26 02  23 42 18.824   +05 07 22.00  .60716 1.5301 144.6 23.0 .708  34
2020 10 26 03  23 42 14.863   +05 07 57.31  .60724 1.5299 144.6 23.0 .719  34
2020 10 26 04  23 42 10.907   +05 08 32.63  .60732 1.5298 144.5 23.0 .730  34
2020 10 26 05  23 42 06.957   +05 09 07.95  .60740 1.5296 144.5 23.0 .742  34
2020 10 26 06  23 42 03.012   +05 09 43.29  .60747 1.5295 144.4 23.0 .753  34
2020 10 26 07  23 41 59.074   +05 10 18.63  .60755 1.5293 144.4 23.0 .765  34
2020 10 26 08  23 41 55.141   +05 10 53.98  .60763 1.5292 144.3 23.1 .777  34
2020 10 26 09  23 41 51.214   +05 11 29.34  .60771 1.5290 144.3 23.1 .788  34
2020 10 26 10  23 41 47.293   +05 12 04.71  .60779 1.5288 144.2 23.1 .800  34
2020 10 26 11  23 41 43.377   +05 12 40.08  .60787 1.5287 144.1 23.1 .812  34
2020 10 26 12  23 41 39.467   +05 13 15.46  .60795 1.5285 144.1 23.1 .824  34
2020 10 26 13  23 41 35.563   +05 13 50.85  .60803 1.5284 144.0 23.1 .836  34
2020 10 26 14  23 41 31.665   +05 14 26.25  .60811 1.5282 144.0 23.1 .848  34
2020 10 26 15  23 41 27.773   +05 15 01.66  .60819 1.5281 143.9 23.1 .861  35
2020 10 26 16  23 41 23.886   +05 15 37.07  .60827 1.5279 143.9 23.1 .873  35
2020 10 26 17  23 41 20.005   +05 16 12.50  .60835 1.5278 143.8 23.1 .885  35
2020 10 26 18  23 41 16.130   +05 16 47.93  .60843 1.5276 143.8 23.1 .898  35
2020 10 26 19  23 41 12.261   +05 17 23.37  .60851 1.5274 143.7 23.1 .910  35
2020 10 26 20  23 41 08.398   +05 17 58.81  .60859 1.5273 143.7 23.1 .923  35
2020 10 26 21  23 41 04.540   +05 18 34.27  .60868 1.5271 143.6 23.1 .936  35
2020 10 26 22  23 41 00.689   +05 19 09.73  .60876 1.5270 143.6 23.1 .948  35
2020 10 26 23  23 40 56.843   +05 19 45.20  .60884 1.5268 143.5 23.1 .961  35